When you browse on this site, cookies collect data to enhance your experience and personalize the content and advertising you see.
Visit our Privacy Policy to learn more. By continuing to use the site, you agree to this use of cookies and data.
  • In Romania
  • List of Countries
  • For 7 days
  • Water Temperature
  • Weather Map
  • Weather Widgets
  • user-avatar
    Login

    Hourly Weather Kenema

    Today, 3 April, Friday

    Time Temperature Precipitation Wind Pressure Humidity
    00:00 +25°C° 0 mm 0 mps 742 mmHg 88%
    01:00 +25°C° 0 mm 0 mps 742 mmHg 90%
    02:00 +24°C° 0 mm 0 mps 741 mmHg 92%
    03:00 +24°C° 0 mm 0 mps 741 mmHg 93%
    04:00 +24°C° 0 mm 0 mps 742 mmHg 94%
    05:00 +24°C° 0 mm 0 mps 742 mmHg 95%
    06:00 +25°C° 0 mm 0 mps 742 mmHg 87%
    07:00 +29°C° 0 mm 1 mps 743 mmHg 79%
    08:00 +31°C° 0 mm 1 mps 743 mmHg 71%
    09:00 +32°C° 0 mm 1 mps 743 mmHg 65%
    10:00 +34°C° 0 mm 1 mps 743 mmHg 58%
    11:00 +36°C° 0 mm 2 mps 743 mmHg 52%
    12:00 +36°C° 0 mm 1 mps 742 mmHg 49%
    13:00 +36°C° 0 mm 1 mps 741 mmHg 47%
    14:00 +37°C° 0 mm 1 mps 741 mmHg 44%
    15:00 +37°C° 0 mm 1 mps 740 mmHg 45%
    16:00 +36°C° 0 mm 1 mps 740 mmHg 45%
    17:00 +37°C° 0 mm 2 mps 740 mmHg 46%
    18:00 +34°C° 0.2 mm 2 mps 740 mmHg 57%
    19:00 +31°C° 0.2 mm 2 mps 741 mmHg 68%
    20:00 +29°C° 0.2 mm 2 mps 741 mmHg 79%
    21:00 +28°C° 0.1 mm 1 mps 742 mmHg 83%
    22:00 +27°C° 0.1 mm 1 mps 742 mmHg 87%
    23:00 +25°C° 0.1 mm 0 mps 742 mmHg 91%

    Tomorrow, 4 April, Saturday

    Time Temperature Precipitation Wind Pressure Humidity
    00:00 +24°C° 0 mm 0 mps 742 mmHg 93%
    01:00 +24°C° 0 mm 0 mps 742 mmHg 94%
    02:00 +24°C° 0 mm 0 mps 742 mmHg 95%
    03:00 +24°C° 0.1 mm 0 mps 742 mmHg 95%
    04:00 +24°C° 0.1 mm 0 mps 742 mmHg 95%
    05:00 +25°C° 0.1 mm 0 mps 742 mmHg 94%
    06:00 +25°C° 0.1 mm 0 mps 742 mmHg 91%
    07:00 +26°C° 0.1 mm 0 mps 743 mmHg 88%
    08:00 +26°C° 0.1 mm 0 mps 744 mmHg 85%
    09:00 +30°C° 0.1 mm 1 mps 743 mmHg 77%
    10:00 +31°C° 0.1 mm 1 mps 743 mmHg 70%
    11:00 +33°C° 0.1 mm 1 mps 743 mmHg 63%
    12:00 +34°C° 0 mm 1 mps 742 mmHg 57%
    13:00 +35°C° 0 mm 1 mps 742 mmHg 51%
    14:00 +37°C° 0 mm 1 mps 741 mmHg 45%
    15:00 +36°C° 0.2 mm 1 mps 741 mmHg 50%
    16:00 +34°C° 0.2 mm 1 mps 741 mmHg 55%
    17:00 +33°C° 0.2 mm 1 mps 740 mmHg 60%
    18:00 +32°C° 0 mm 1 mps 741 mmHg 68%
    19:00 +30°C° 0 mm 1 mps 742 mmHg 75%
    20:00 +29°C° 0 mm 1 mps 742 mmHg 82%
    21:00 +28°C° 0 mm 1 mps 742 mmHg 85%
    22:00 +28°C° 0 mm 1 mps 742 mmHg 88%
    23:00 +25°C° 0 mm 0 mps 742 mmHg 91%

    Day after tomorrow, 5 April, Sunday

    Time Temperature Precipitation Wind Pressure Humidity
    00:00 +25°C° 0 mm 0 mps 742 mmHg 92%
    01:00 +24°C° 0 mm 0 mps 742 mmHg 94%
    02:00 +24°C° 0 mm 0 mps 742 mmHg 95%
    03:00 +24°C° 0 mm 0 mps 742 mmHg 96%
    04:00 +24°C° 0 mm 0 mps 742 mmHg 96%
    05:00 +24°C° 0 mm 0 mps 742 mmHg 97%
    06:00 +26°C° 0 mm 0 mps 743 mmHg 88%
    07:00 +28°C° 0 mm 0 mps 743 mmHg 79%
    08:00 +30°C° 0 mm 0 mps 744 mmHg 69%
    09:00 +30°C° 0 mm 0 mps 744 mmHg 65%
    10:00 +33°C° 0 mm 1 mps 744 mmHg 60%
    11:00 +34°C° 0 mm 1 mps 743 mmHg 56%
    12:00 +34°C° 0 mm 1 mps 743 mmHg 56%
    13:00 +34°C° 0 mm 1 mps 742 mmHg 55%
    14:00 +35°C° 0 mm 1 mps 741 mmHg 55%
    15:00 +34°C° 0.2 mm 1 mps 741 mmHg 56%
    16:00 +34°C° 0.2 mm 1 mps 741 mmHg 57%
    17:00 +35°C° 0.2 mm 2 mps 741 mmHg 58%
    18:00 +32°C° 0 mm 1 mps 741 mmHg 66%
    19:00 +31°C° 0 mm 1 mps 742 mmHg 74%
    20:00 +29°C° 0 mm 1 mps 742 mmHg 82%
    21:00 +28°C° 0 mm 1 mps 743 mmHg 85%
    22:00 +28°C° 0 mm 1 mps 743 mmHg 88%
    23:00 +25°C° 0 mm 0 mps 743 mmHg 91%

    6 April, Monday

    Time Temperature Precipitation Wind Pressure Humidity
    00:00 +25°C° 0 mm 0 mps 743 mmHg 92%
    01:00 +25°C° 0 mm 0 mps 742 mmHg 93%
    02:00 +25°C° 0 mm 0 mps 742 mmHg 94%
    03:00 +25°C° 0.1 mm 0 mps 742 mmHg 93%
    04:00 +25°C° 0.1 mm 0 mps 742 mmHg 92%
    05:00 +25°C° 0.1 mm 0 mps 742 mmHg 91%
    06:00 +28°C° 0.1 mm 1 mps 743 mmHg 87%
    07:00 +29°C° 0.1 mm 1 mps 743 mmHg 83%
    08:00 +30°C° 0.1 mm 1 mps 744 mmHg 79%
    09:00 +31°C° 0 mm 1 mps 743 mmHg 71%
    10:00 +33°C° 0 mm 1 mps 743 mmHg 62%
    11:00 +35°C° 0 mm 1 mps 743 mmHg 54%
    12:00 +35°C° 0 mm 1 mps 742 mmHg 54%
    13:00 +35°C° 0 mm 1 mps 742 mmHg 53%
    14:00 +35°C° 0 mm 1 mps 741 mmHg 53%
    15:00 +35°C° 0.5 mm 2 mps 741 mmHg 57%
    16:00 +35°C° 0.5 mm 2 mps 741 mmHg 60%
    17:00 +34°C° 0.5 mm 2 mps 741 mmHg 64%
    18:00 +31°C° 0.1 mm 2 mps 741 mmHg 71%
    19:00 +30°C° 0.1 mm 2 mps 742 mmHg 78%
    20:00 +28°C° 0.1 mm 1 mps 742 mmHg 84%
    21:00 +28°C° 0.5 mm 1 mps 743 mmHg 87%
    22:00 +27°C° 0.5 mm 1 mps 743 mmHg 90%
    23:00 +27°C° 0.5 mm 1 mps 743 mmHg 93%

    7 April, Tuesday

    Time Temperature Precipitation Wind Pressure Humidity
    00:00 +25°C° 0 mm 0 mps 743 mmHg 93%
    01:00 +25°C° 0 mm 0 mps 742 mmHg 93%
    02:00 +24°C° 0 mm 0 mps 742 mmHg 94%
    03:00 +25°C° 0 mm 0 mps 742 mmHg 94%
    04:00 +25°C° 0 mm 0 mps 742 mmHg 93%
    05:00 +25°C° 0 mm 0 mps 742 mmHg 93%
    06:00 +25°C° 0 mm 0 mps 743 mmHg 89%
    07:00 +26°C° 0 mm 0 mps 743 mmHg 86%
    08:00 +27°C° 0 mm 0 mps 744 mmHg 82%
    09:00 +30°C° 0.1 mm 0 mps 744 mmHg 70%
    10:00 +33°C° 0.1 mm 0 mps 744 mmHg 58%
    11:00 +35°C° 0.1 mm 0 mps 744 mmHg 47%
    12:00 +37°C° 1 mm 1 mps 743 mmHg 49%
    13:00 +36°C° 1 mm 1 mps 742 mmHg 51%
    14:00 +36°C° 1 mm 2 mps 742 mmHg 54%
    15:00 +35°C° 0.3 mm 2 mps 741 mmHg 59%
    16:00 +34°C° 0.3 mm 2 mps 741 mmHg 64%
    17:00 +31°C° 0.3 mm 2 mps 741 mmHg 69%
    18:00 +30°C° 0.3 mm 2 mps 741 mmHg 75%
    19:00 +29°C° 0.3 mm 1 mps 742 mmHg 81%
    20:00 +28°C° 0.3 mm 1 mps 742 mmHg 87%
    21:00 +27°C° 0 mm 1 mps 742 mmHg 89%
    22:00 +25°C° 0 mm 0 mps 743 mmHg 91%
    23:00 +24°C° 0 mm 0 mps 743 mmHg 93%

    8 April, Wednesday

    Time Temperature Precipitation Wind Pressure Humidity
    00:00 +24°C° 0 mm 0 mps 743 mmHg 94%
    01:00 +24°C° 0 mm 0 mps 742 mmHg 94%
    02:00 +26°C° 0 mm 1 mps 742 mmHg 95%
    03:00 +24°C° 0 mm 0 mps 742 mmHg 96%
    04:00 +23°C° 0 mm 0 mps 742 mmHg 97%
    05:00 +23°C° 0 mm 0 mps 742 mmHg 98%
    06:00 +25°C° 0 mm 0 mps 742 mmHg 90%
    07:00 +28°C° 0 mm 1 mps 743 mmHg 83%
    08:00 +30°C° 0 mm 1 mps 743 mmHg 75%
    09:00 +31°C° 0 mm 1 mps 743 mmHg 68%
    10:00 +33°C° 0 mm 1 mps 743 mmHg 62%
    11:00 +35°C° 0 mm 2 mps 743 mmHg 55%
    12:00 +35°C° 0.1 mm 2 mps 742 mmHg 55%
    13:00 +35°C° 0.1 mm 2 mps 742 mmHg 56%
    14:00 +35°C° 0.1 mm 2 mps 741 mmHg 56%
    15:00 +34°C° 1.2 mm 2 mps 741 mmHg 60%
    16:00 +34°C° 1.2 mm 2 mps 740 mmHg 65%
    17:00 +32°C° 1.2 mm 2 mps 740 mmHg 69%
    18:00 +30°C° 1.7 mm 2 mps 741 mmHg 76%
    19:00 +29°C° 1.7 mm 2 mps 742 mmHg 83%
    20:00 +28°C° 1.7 mm 2 mps 743 mmHg 90%
    21:00 +27°C° 5.5 mm 2 mps 743 mmHg 91%
    22:00 +27°C° 5.5 mm 2 mps 744 mmHg 91%
    23:00 +26°C° 5.5 mm 2 mps 744 mmHg 92%
    Show more